STARLINK-5478 (55642 NORAD) Tracking and Keplerian Element Data

This shows tracking and keplerian element data for the satellite.

Feedback or suggestion? Click here.




ElementValue
Catalog55642
NameSTARLINK-5478
Epoch Orbit625
Epoch Day85.17253052
Epoch Year2023
RAAN47.6003
Inclination70.0026
Eccentricity0.0003156
Argument of Perigee272.5646
Mean Anonmoly87.5188
Mean Motion15.69928696
Decay Rate2.533E-05
L11 55642U 23021Q 23085.17253052 .00002533 00000+0 22820-4 0 9993
L22 55642 70.0026 47.6003 0003156 272.5646 87.5188 15.69928696 6257



Live tracking and technical data element details for STARLINK-5478 (NORAD 55642). STARLINK-5478 can be tracked NOW for your location showing map with azimuth and elevation plus other details from your city location.







IsCatalogInMostPopularTable: catalog: 55642, numindb: 2
Update: records affected: 1



GetName: 55642 STARLINK-5478

Hit Count: updated at: Tue, 28 Mar 2023 02:44:55 GMT